This is the latest recevied weather packets stored in our database for station/object DO6WO-10. If no packets are shown the sender has not sent any weather packets the latest 10 day(s).
| Time | Temp. | Humidity | Pressure | Rain* | Wind** | Luminosity | Snow |
|---|---|---|---|---|---|---|---|
| 1777680796 | 11.11° C | 34% | 1030.1 hPa | - | - | - | - |
| 1777678096 | 11.11° C | 35% | 1030.2 hPa | - | - | - | - |
| 1777675394 | 11.67° C | 34% | 1030.3 hPa | - | - | - | - |
| 1777672694 | 12.22° C | 34% | 1030.2 hPa | - | - | - | - |
| 1777669996 | 13.33° C | 32% | 1030.1 hPa | - | - | - | - |
| 1777667296 | 13.89° C | 31% | 1030.2 hPa | - | - | - | - |
| 1777664596 | 15.56° C | 30% | 1029.9 hPa | - | - | - | - |
| 1777661896 | 16.11° C | 29% | 1029.5 hPa | - | - | - | - |
| 1777659196 | 17.78° C | 26% | 1029 hPa | - | - | - | - |
| 1777656496 | 18.89° C | 26% | 1028.8 hPa | - | - | - | - |
| 1777653796 | 19.44° C | 24% | 1028.7 hPa | - | - | - | - |
| 1777651095 | 20° C | 24% | 1029 hPa | - | - | - | - |
| 1777648395 | 20.56° C | 23% | 1029 hPa | - | - | - | - |
| 1777645695 | 21.11° C | 23% | 1029.2 hPa | - | - | - | - |
| 1777642995 | 22.78° C | 23% | 1029.3 hPa | - | - | - | - |
| 1777640301 | 21.67° C | 23% | 1029.9 hPa | - | - | - | - |
| 1777640295 | 21.67° C | 23% | 1029.9 hPa | - | - | - | - |
| 1777637594 | 21.67° C | 23% | 1030.3 hPa | - | - | - | - |
| 1777634894 | 20.56° C | 25% | 1030.7 hPa | - | - | - | - |
| 1777632194 | 20° C | 25% | 1031.2 hPa | - | - | - | - |
| 1777629494 | 18.33° C | 27% | 1031.5 hPa | - | - | - | - |
| 1777626795 | 16.67° C | 28% | 1031.8 hPa | - | - | - | - |
| 1777624095 | 15° C | 29% | 1031.9 hPa | - | - | - | - |
| 1777621395 | 12.78° C | 30% | 1032.2 hPa | - | - | - | - |
| 1777618729 | 10.56° C | 32% | 1032.4 hPa | - | - | - | - |
* Rain since midnight (hover to see other rain measurements)
** Current wind speed in m/s (hover to see current wind gust speed)